Simultaneous Nadir Overpasses (SNOs) Predictions

Prediction of SNOs between AQUA and METOP-C Satellite Orbit:

Table of predicted SNOs for the next 14.0 days since TLE Epoch: 6/22/2024
Index Date (AQUA) Time (AQUA) Lat,Lon (AQUA) SZA (AQUA ) Date (METOP-C) Time (METOP-C) Lat,Lon (METOP-C) SZA (METOP-C ) Distance(km) Time Diff (sec)
1 06/22/2024 19:01:57 75.40,-106.76 51.90 06/22/2024 19:00:53 75.40,-106.81 51.90 1.42 64
2 06/22/2024 19:51:19 -75.45, 60.76 128.05 06/22/2024 19:51:34 -75.45, 60.67 128.05 2.52 15
3 06/25/2024 10:23:00 -75.40,-156.98 128.04 06/25/2024 10:21:55 -75.40,-157.07 128.04 2.52 65
4 06/25/2024 11:12:24 75.47, 10.48 52.03 06/25/2024 11:12:33 75.46, 10.48 52.03 0.81 9
5 06/25/2024 12:01:57 -76.05, 176.38 127.36 06/25/2024 12:03:02 -76.08, 179.79 127.37 91.34 65
6 06/28/2024 01:44:04 75.43, 152.73 52.10 06/28/2024 01:42:53 75.44, 152.84 52.11 3.38 71
7 06/28/2024 02:33:26 -75.47, -39.73 127.86 06/28/2024 02:33:35 -75.46, -39.79 127.87 2.29 9
8 06/28/2024 03:22:57 75.89, 126.69 52.58 06/28/2024 03:24:04 75.94, 129.09 52.61 65.44 67
9 06/30/2024 17:05:05 -75.43, 102.53 127.75 06/30/2024 17:03:55 -75.43, 102.56 127.74 1.13 70
10 06/30/2024 17:54:29 75.51, -90.04 52.33 06/30/2024 17:54:33 75.49, -89.93 52.32 3.56 4
11 06/30/2024 18:43:59 -75.93, 76.34 127.22 06/30/2024 18:45:06 -75.93, 78.81 127.25 66.59 67
12 07/03/2024 08:26:05 75.42, 52.35 52.44 07/03/2024 08:24:52 75.45, 52.38 52.48 3.61 73
13 07/03/2024 09:15:28 -75.50,-140.22 127.47 07/03/2024 09:15:34 -75.48,-140.22 127.50 2.42 6
14 07/03/2024 10:04:57 75.83, 26.45 52.88 07/03/2024 10:06:05 75.85, 28.32 52.88 50.97 68
15 07/05/2024 23:47:05 -75.46, 2.04 127.27 07/05/2024 23:45:54 -75.43, 2.08 127.29 2.72 71
16 07/06/2024 00:36:28 75.50, 169.58 52.78 07/06/2024 00:36:32 75.48, 169.55 52.76 2.23 4



Historial Predications of SNOs between AQUA and METOP-C
